Location: Pasadena, ca
(34.1243°N, 118.1037°W)
Time: 12:19:40
(UTC-07:00)

Tiangong 2 - Pass Details

Date: 14 October 2017
Orbit: 388 x 391 km, 42.8° (Epoch: 22 October)

Event Time Altitude Azimuth Distance (km) Brightness Sun altitude
Exits shadow 05:03:10 15° 23° (NNE) 1,161 3.8 -24.3°
Drops below altitude 10° 05:04:12 10° 39° (NE) 1,421 4.5 -24.1°
Sets 05:06:43 0° 59° (ENE) 2,277 6.1 -23.6°
